Tracking 32964 objects as of 20-Jan-2026
HD Live streaming from Space Station
objects crossing your sky now

CZ-6A DEB

Track CZ-6A DEB now!
10-day predictions


NORAD ID: 56655
Int'l Code: 2022-151AGF
Perigee: 705.9 km
Apogee: 827.9 km
Inclination: 98.6 °
Period: 100.0 minutes
Semi major axis: 7137 km
RCS: Unknown
Launch date: November 11, 2022
Source: People's Republic of China (PRC)
Launch site: Taiyaun Space Center, China (TSC)

Note: This is SATELLITE DEBRIS
Your satellite tracking list
Your tracking list is empty




NASA's NSSDC Master Catalog

Two Line Element Set (TLE):
1 56655U 22151AGF 26016.31479015  .00000556  00000-0  18452-3 0  9992
2 56655  98.6410  51.9355 0085513  92.6181 268.4799 14.39616773143206
Source of the keplerian elements: AFSPC